[[{"header":{"parameterUnit":"m.s-1","parameterCategory":1,"la1":30.2991,"la2":30.254,"lo1":-89.0895,"lo2":-89.0444,"dy":0.0017,"dx":0.0017,"nx":28,"ny":28,"refTime":"2025-07-11T09:00:00:Z","depth":0,"parameterNumber":2,"parameterNumberName":"U-component_of_WINDS"},"data":[0,0,0,0,0,0,0,0,0,0,0,0,0,0,0,0,0,0,0,0,0,0,0,0,0,0,0,0,0,0,0,0,0,0,0,0,0,0,0,0,0,0,0,0,0,0,0,0,0,0,0,0,0,0,0,0,0,0,3.9229,3.923,0,3.9326,3.9328,3.9329,3.9271,3.9269,3.9266,3.9263,3.9363,3.9368,3.9373,0,0,0,0,0,0,0,0,0,0,0,0,0,3.8989,3.8994,3.9228,3.923,3.9231,3.9326,3.9328,3.9329,3.9272,3.9268,3.9265,3.9262,3.9361,3.9368,3.9374,0,0,0,0,0,0,0,0,0,0,0,0,0,3.909,3.8995,3.9228,3.9214,3.9214,3.9326,3.9328,3.9329,3.9273,3.9268,3.9264,3.926,3.9359,3.9367,3.9375,3.9506,0,0,3.9399,3.9402,0,0,0,0,0,0,0,0,3.9085,3.9099,3.9215,3.9215,3.9215,3.9282,3.928,3.9389,3.9274,3.925,3.9263,3.9258,3.934,3.9349,3.9376,3.9511,3.9515,3.9399,3.9404,3.9408,3.941,0,0,0,0,0,0,0,3.9078,3.9095,3.9267,3.9217,3.9217,3.9201,3.9211,3.93,3.9317,3.9252,3.9248,3.926,3.9339,3.9369,3.9378,3.9517,3.9399,3.9406,3.9411,3.9414,3.9759,3.9763,0,0,0,0,0,0,3.9072,3.9089,3.9264,3.927,3.9138,3.9209,3.922,3.9265,3.9316,3.932,3.9264,3.9257,3.9357,3.9369,3.9381,3.9535,3.9407,3.9415,3.9419,3.9755,3.976,3.9765,0,0,0,0,0,0,3.9067,3.9088,3.926,3.9179,3.9199,3.9218,3.9268,3.9269,3.9299,3.9325,3.9327,3.9292,3.9355,3.937,3.9475,3.9538,3.9418,3.9426,3.9749,3.9756,3.9763,3.9846,0,0,0,0,0,0,3.9061,3.9087,3.9138,3.918,3.9204,3.9353,3.9273,3.9274,3.9313,3.9305,3.9352,3.9355,3.9353,3.9463,3.9482,3.9546,3.9432,3.9744,3.9753,3.976,3.9837,3.9854,3.9869,0,0,0,0,0,3.9052,3.9159,3.9141,3.9162,3.9269,3.9357,3.937,3.9365,3.9318,3.9369,3.9385,3.9354,3.9528,3.9474,3.9496,3.9563,3.974,3.975,3.976,3.983,3.9851,3.9868,0,0,0,0,0,0,3.9124,3.9164,3.9145,3.9269,3.9309,3.9347,3.9411,3.9388,3.9443,3.9434,3.9425,3.9436,3.9543,3.9564,3.9503,3.969,3.9626,3.9641,3.9673,3.9693,3.9708,3.9699,3.9438,0,0,0,0,0,3.9154,3.9223,3.9254,3.936,3.9382,3.9393,3.9431,3.9423,3.9465,3.9483,3.9506,3.9548,3.9611,3.9654,3.9714,3.9841,3.9847,3.9897,3.9913,3.9926,3.9937,4.0001,4.0022,3.9798,3.9798,3.9798,0,0,3.9218,3.9248,3.9292,3.9375,3.9406,3.9476,3.9408,3.9486,3.9536,3.9494,3.9593,3.9612,3.9657,3.9772,3.9824,3.9792,4.0001,3.9938,3.9948,3.9953,4.0013,4.0035,4.0053,3.9805,3.9803,3.9802,0,0,3.9367,3.9399,3.9488,3.952,3.9567,3.9573,3.9595,3.9635,3.9645,3.9744,3.9712,3.9773,3.9884,3.9916,3.9947,4.0106,4.0077,4.0126,4.0207,4.0269,4.0287,4.0302,4.0354,4.0374,4.0138,4.0138,4.0138,0,3.944,3.9544,3.9537,3.9616,3.9652,3.9616,3.9704,3.9736,3.9801,3.9825,3.979,3.9925,3.9954,4.0073,4.0111,4.0139,4.016,4.0119,4.0285,4.03,4.0315,4.0364,4.0384,4.0144,4.0143,4.0142,4.0142,0,3.9628,3.9701,3.9767,3.9829,3.9872,3.9956,3.996,4.0005,3.9993,4.0002,4.0101,4.0134,4.0197,4.0226,4.0216,4.0343,4.0321,4.0286,4.0221,4.0341,4.0387,4.0407,4.0151,4.0149,4.0148,4.0146,0,0,3.9827,3.9881,3.9905,3.993,3.9978,4.0034,4.0114,4.0176,4.0213,4.0259,4.0323,4.0417,4.0383,4.0418,4.0411,4.0466,4.0583,4.0423,4.0424,4.0448,4.072,4.0743,4.0766,4.0566,4.057,4.0573,4.0714,0,3.9976,4.0116,4.0111,4.0241,4.0306,4.0271,4.0341,4.0377,4.0387,4.0442,4.0454,4.0518,4.0471,4.0491,4.0544,4.0558,4.0637,4.0548,4.0623,4.0626,4.0609,4.0791,4.0817,4.0949,4.0733,4.0736,4.0738,0,4.0169,4.0219,4.0355,4.0389,4.0416,4.0479,4.0533,4.0588,4.0626,4.063,4.0667,4.065,4.0729,4.0664,4.0771,4.071,4.0741,4.0752,4.0757,4.0761,4.0687,4.0796,4.0991,4.101,4.0767,4.0765,4.0763,0,4.0294,4.0396,4.0489,4.0513,4.0556,4.06,4.062,4.0655,4.0691,4.0739,4.0761,4.0818,4.0848,4.0891,4.0889,4.0843,4.0995,4.0931,4.0998,4.0998,4.1029,4.1027,4.1229,4.1056,4.1055,4.1055,4.1054,0,4.0459,4.0543,4.0545,4.0602,4.0694,4.0686,4.0777,4.0792,4.0823,4.088,4.0856,4.091,4.0906,4.096,4.096,4.1045,4.106,4.1063,4.1061,4.1063,4.1062,4.1081,4.107,4.106,4.1059,4.1058,4.1057,0,4.0614,4.0619,4.0718,4.075,4.076,4.0826,4.0852,4.0905,4.0913,4.0986,4.1003,4.1014,4.1077,4.1079,4.1153,4.1151,4.1254,4.1244,4.1241,4.1237,4.1302,4.1294,4.152,4.1547,4.136,4.1362,4.1364,0,4.0717,4.078,4.0819,4.0855,4.0877,4.0938,4.0973,4.0968,4.1006,4.1053,4.1099,4.1159,4.1207,4.1308,4.1322,4.1376,4.1365,4.144,4.1373,4.1371,4.136,4.1355,4.1359,4.1452,4.1454,4.1456,4.1457,0,4.0899,4.0897,4.095,4.1003,4.1047,4.1088,4.1127,4.1158,4.1157,4.1201,4.1264,4.13,4.1373,4.1431,4.1483,4.1502,4.1479,4.1479,4.1496,4.1497,4.149,4.149,4.1272,4.1473,4.1471,4.147,4.1469,4.1469,4.1028,4.108,4.1114,4.1173,4.1201,4.1237,4.1287,4.1299,4.1352,4.141,4.1403,4.1472,4.1506,4.1573,4.1596,4.1649,4.1623,4.1649,4.1655,4.1661,4.1665,4.1485,4.1659,4.1659,4.1658,4.1658,4.1657,0,4.1204,4.1223,4.1278,4.1331,4.1376,4.1351,4.1391,4.143,4.1491,4.1524,4.1571,4.1641,4.1697,4.1714,4.1768,4.1806,4.1796,4.182,4.1815,4.1819,4.1688,4.1665,4.1827,4.1827,4.1827,4.1827,4.1827,4.1827,4.13,4.1386,4.1389,4.1487,4.1506,4.1573,4.1597,4.1629,4.1655,4.1734,4.178,4.1791,4.1817,4.1872,4.1921,4.1924,4.1943,4.1971,4.1969,4.1846,4.1829,4.1813,4.1791,4.1976,4.1976,4.2095,4.2096,4.2097]},{"header":{"parameterUnit":"m.s-1","parameterCategory":1,"la1":30.2991,"la2":30.254,"lo1":-89.0895,"lo2":-89.0444,"dy":0.0017,"dx":0.0017,"nx":28,"ny":28,"refTime":"2025-07-11T09:00:00:Z","depth":0,"parameterNumber":3,"parameterNumberName":"V-component_of_WINDS"},"data":[0,0,0,0,0,0,0,0,0,0,0,0,0,0,0,0,0,0,0,0,0,0,0,0,0,0,0,0,0,0,0,0,0,0,0,0,0,0,0,0,0,0,0,0,0,0,0,0,0,0,0,0,0,0,0,0,0,0,2.8585,2.8586,0,2.8706,2.8708,2.8709,2.8708,2.8707,2.8705,2.8704,2.8827,2.8832,2.8836,0,0,0,0,0,0,0,0,0,0,0,0,0,2.8349,2.8353,2.8585,2.8586,2.8588,2.8706,2.8708,2.8709,2.8709,2.8707,2.8705,2.8703,2.8825,2.8831,2.8837,0,0,0,0,0,0,0,0,0,0,0,0,0,2.8459,2.8355,2.8584,2.8602,2.8604,2.8706,2.8708,2.871,2.8709,2.8707,2.8704,2.8702,2.8824,2.883,2.8838,2.8929,0,0,2.8859,2.8862,0,0,0,0,0,0,0,0,2.8453,2.8467,2.8598,2.8601,2.8604,2.869,2.867,2.8783,2.871,2.8669,2.8704,2.8701,2.8783,2.8793,2.8822,2.8935,2.8941,2.886,2.8864,2.8867,2.8869,0,0,0,0,0,0,0,2.8445,2.8462,2.8633,2.8599,2.8603,2.8602,2.8615,2.8691,2.8738,2.8673,2.8673,2.8687,2.8784,2.8815,2.8824,2.8942,2.886,2.8866,2.8871,2.8873,2.9134,2.9137,0,0,0,0,0,0,2.8434,2.8456,2.8629,2.8636,2.8521,2.8608,2.8623,2.8665,2.8737,2.8746,2.8689,2.8687,2.8804,2.8816,2.8829,2.8939,2.8867,2.8874,2.8878,2.9132,2.9135,2.9138,0,0,0,0,0,0,2.8429,2.845,2.8624,2.8546,2.8568,2.8615,2.8662,2.8668,2.8698,2.875,2.8758,2.8712,2.8802,2.8819,2.8904,2.8944,2.8877,2.8884,2.9129,2.9133,2.9136,2.9162,0,0,0,0,0,0,2.8422,2.8448,2.8484,2.8547,2.8573,2.8698,2.8664,2.8672,2.8711,2.8709,2.8773,2.8781,2.8802,2.8893,2.8911,2.8952,2.8889,2.9125,2.9131,2.9135,2.9158,2.9167,2.9174,0,0,0,0,0,2.8414,2.8487,2.8486,2.8507,2.8619,2.8701,2.8715,2.8737,2.8714,2.875,2.8783,2.8779,2.8936,2.8902,2.8922,2.8966,2.9123,2.9129,2.9135,2.9154,2.9165,2.9174,0,0,0,0,0,0,2.8428,2.8495,2.8495,2.8591,2.864,2.87,2.8747,2.8748,2.8804,2.88,2.8824,2.8839,2.8923,2.8953,2.8914,2.9057,2.9027,2.9037,2.9035,2.9045,2.9053,2.9043,2.8895,0,0,0,0,0,2.8442,2.8503,2.8559,2.8638,2.8662,2.87,2.8736,2.8749,2.8801,2.8821,2.886,2.891,2.897,2.9009,2.9068,2.9162,2.9175,2.9202,2.921,2.9216,2.9225,2.9274,2.9286,2.9157,2.9157,2.9157,0,0,2.8472,2.8516,2.8553,2.8641,2.8681,2.8742,2.8718,2.8785,2.883,2.8831,2.8914,2.8944,2.9001,2.909,2.9132,2.9118,2.9263,2.9224,2.9228,2.9234,2.9282,2.9294,2.9304,2.9162,2.9161,2.916,0,0,2.8557,2.8598,2.8667,2.8706,2.8766,2.8791,2.8807,2.8867,2.8887,2.897,2.8972,2.9025,2.913,2.9169,2.9203,2.9301,2.9299,2.9319,2.936,2.9408,2.9418,2.9427,2.946,2.9472,2.9327,2.9327,2.9327,0,2.8587,2.868,2.8702,2.8769,2.8806,2.881,2.8879,2.8916,2.8992,2.9017,2.9001,2.913,2.9168,2.9266,2.9289,2.9317,2.9335,2.9312,2.9415,2.9425,2.9433,2.9465,2.9478,2.9329,2.9329,2.9329,2.9329,0,2.8712,2.8777,2.8825,2.8898,2.8941,2.9008,2.9039,2.908,2.9088,2.9114,2.9197,2.9243,2.931,2.9334,2.9344,2.9433,2.9422,2.941,2.938,2.9447,2.9477,2.949,2.9332,2.9331,2.9331,2.933,0,0,2.8811,2.8893,2.891,2.8942,2.9007,2.9057,2.9124,2.9189,2.9222,2.9274,2.9329,2.9416,2.9405,2.9443,2.9456,2.9499,2.957,2.9481,2.9483,2.9495,2.9669,2.9676,2.969,2.9569,2.9572,2.9574,2.9663,0,2.8902,2.9021,2.9042,2.9145,2.9204,2.9207,2.9264,2.931,2.9335,2.9388,2.9415,2.9476,2.9457,2.948,2.9522,2.9553,2.9605,2.9547,2.9619,2.9622,2.9604,2.9706,2.9715,2.9798,2.9676,2.9678,2.9679,0,2.9025,2.9078,2.9188,2.9242,2.9268,2.9319,2.9379,2.943,2.9481,2.9496,2.9537,2.9545,2.9613,2.9579,2.9672,2.9631,2.9662,2.9681,2.9685,2.9692,2.9654,2.9715,2.9825,2.9837,2.9698,2.9697,2.9695,0,2.9083,2.9183,2.9261,2.9288,2.9355,2.939,2.9419,2.9468,2.9505,2.9557,2.9581,2.964,2.9673,2.9718,2.9741,2.9715,2.983,2.98,2.9843,2.9843,2.9867,2.9865,2.9983,2.9889,2.9889,2.9889,2.9888,0,2.9182,2.9248,2.9287,2.9335,2.9408,2.9431,2.9503,2.9531,2.9574,2.9626,2.9632,2.9681,2.9709,2.9761,2.9779,2.9851,2.9866,2.9879,2.9883,2.9878,2.9876,2.9898,2.9892,2.9892,2.9891,2.9891,2.989,0,2.926,2.9289,2.9373,2.9429,2.9444,2.9496,2.9543,2.9588,2.9612,2.9678,2.9695,2.9733,2.9794,2.9822,2.9898,2.991,2.9992,2.9992,2.9974,2.9976,3.0017,3.0012,3.0152,3.017,3.0066,3.0067,3.0068,0,2.9321,2.9371,2.9432,2.9467,2.9497,2.9554,2.9592,2.9615,2.9654,2.9714,2.9751,2.9813,2.9863,2.9961,2.9995,3.0052,3.0053,3.0098,3.0062,3.0054,3.0052,3.0048,3.0052,3.0104,3.0105,3.0106,3.0107,0,2.9425,2.9436,2.949,2.9548,2.9593,2.964,2.9686,2.9714,2.9745,2.9787,2.985,2.9889,2.9966,3.0026,3.0085,3.0114,3.0115,3.0118,3.0131,3.0126,3.0113,3.0119,2.9991,3.0115,3.0114,3.0113,3.0113,3.0113,2.9495,2.9539,2.9588,2.9647,2.9684,2.9726,2.9771,2.98,2.9853,2.9918,2.9928,2.9994,3.0041,3.0121,3.0152,3.0203,3.0192,3.0211,3.0216,3.022,3.0221,3.0105,3.0214,3.0214,3.0214,3.0214,3.0213,0,2.9597,2.9628,2.9683,2.9746,2.9792,2.979,2.984,2.9878,2.9936,2.9981,3.003,3.01,3.0158,3.0196,3.0254,3.0288,3.029,3.0302,3.0299,3.0305,3.0229,3.0211,3.03,3.03,3.03,3.03,3.03,3.03,2.9656,2.973,2.9747,2.9838,2.9869,2.9934,2.9963,3.0001,3.0036,3.0115,3.0163,3.0187,3.0228,3.0289,3.0341,3.0351,3.0371,3.0384,3.0393,3.032,3.0311,3.0303,3.0286,3.0389,3.0389,3.0465,3.0466,3.0466]}]]